Regional Weather Roundup
Issued by NWS

Home | Current Version | Previous Version | Graphics & Text | Print | Product List | Glossary On
Versions: 1 2 3 4 5 6 7 8 9 10 11 12 13 14 15 16 17 18 19 20 21 22 23 24 25 26
000
ASUS45 KCYS 281410
RWRWY

WYOMING REGIONAL WEATHER ROUNDUP
NATIONAL WEATHER SERVICE CHEYENNE WY
800 AM MDT WED JUN 28 2017

NOTE:  "FAIR" INDICATES FEW OR NO CLOUDS BELOW 12,000 FEET
WITH NO SIGNIFICANT WEATHER AND/OR OBSTRUCTIONS TO VISIBILITY.

WYZ001-281500-
YELLOWSTONE NATIONAL PARK

CITY           SKY/WX    TMP DP  RH WIND       PRES   REMARKS
LK YELLOWSTONE   N/A     43  43 100 CALM      30.09S
W YELLOWSTONE  NOT AVBL

$$
WYZ002>013-054>058-071-098>099-281500-
NORTHERN WYOMING

CITY           SKY/WX    TMP DP  RH WIND       PRES   REMARKS
JACKSON        SUNNY     46  46 100 CALM      30.03F
CODY           FAIR      62  43  49 SW3       29.90S
GREYBULL       FAIR      62  46  55 S5        29.84F
WORLAND          N/A     58  48  69 CALM      29.85S
SHERIDAN       FAIR      63  49  60 CALM      29.84R
BUFFALO        FAIR      63  47  55 SE6       29.90R
GILLETTE       FAIR      63  53  70 CALM      29.87R
NEWCASTLE      FAIR      61  46  59 CALM      29.87F

$$
WYZ014>020-022>026-101>103-281500-
CENTRAL WYOMING

CITY           SKY/WX    TMP DP  RH WIND       PRES   REMARKS
BIG PINEY      FAIR      54  39  57 NE10      30.09R
PINEDALE       PTSUNNY   48  43  81 NW7       30.09R
DUBOIS         CLOUDY    46  39  76 N15G30    30.06R
LANDER         FAIR      55  40  56 NW5       29.96R
RIVERTON       FAIR      58  43  57 NW6       29.93S
CASPER         FAIR      63  41  44 VRB3      29.92F
DOUGLAS        FAIR      59  44  57 CALM      29.94S

$$
WYZ021-027>030-104>119-281500-
SOUTHERN WYOMING

CITY           SKY/WX    TMP DP  RH WIND       PRES   REMARKS
EVANSTON       FAIR      54  35  48 S7        30.06S
FORT BRIDGER   FAIR      65  31  28 W8        30.08S
ROCK SPRINGS   FAIR      58  36  43 CALM      30.04S
DIXON          FAIR      57  40  52 S6        30.06S
RAWLINS        FAIR      54  40  59 CALM      30.04R
SARATOGA       FAIR      55  43  62 SE10G16   30.06S
LARAMIE        FAIR      58  40  51 S9        30.05S
CHEYENNE       FAIR      61  39  44 S3        30.00S
TORRINGTON     FAIR      64  46  52 NW7       29.90S
PINE BLUFFS    FAIR      59  45  58 S5        29.97R

$$




USA.gov is the U.S. government's official web portal to all federal, state and local government web resources and services.